Preview of NWS' New Version of Forecast
This preview is not operational and should not be used for support decisions.

Regional Weather Roundup (RWR)

Issued by National Weather Service (NWS)

                            
000
ASUS46 KPQR 152310
RWROR 

OREGON REGIONAL WEATHER ROUNDUP
NATIONAL WEATHER SERVICE PORTLAND OR
300 PM PST FRI FEB 15 2019

NOTE: "FAIR" INDICATES FEW OR NO CLOUDS BELOW 12,000 FEET WITH
NO SIGNIFICANT WEATHER AND/OR OBSTRUCTIONS TO VISIBILITY.

ORZ001>013-160000-
NORTHWEST OREGON

  
CITY           SKY/WX    TMP DP  RH WIND       PRES   REMARKS
ASTORIA        LGT RAIN  45  41  86 E8        29.61S                  
TILLAMOOK      LGT RAIN  45  37  76 SE5       29.63S                  
NEWPORT        RAIN      39  37  93 SE12      29.64R WCI  32          
PORTLAND       CLOUDY    44  37  76 SE10      29.67F                  
VANCOUVER WA   CLOUDY    45  37  73 VRB5      29.67S                  
SCAPPOOSE      LGT RAIN  48  38  68 SW8       29.66S                  
HILLSBORO      LGT RAIN  44  38  79 S7        29.66S                  
AURORA         CLOUDY    47  37  68 S13G24    29.67S                  
MCMINNVILLE    CLOUDY    46  37  71 S13       29.64F                  
SALEM          CLOUDY    48  35  60 S13       29.63F                  
CORVALLIS      LGT RAIN  44  38  79 S22       29.65S                  
EUGENE         LGT RAIN  46  35  65 S28G37    29.66S                  
$$

ORZ021-028-160000-
SOUTHWEST OREGON

  
CITY           SKY/WX    TMP DP  RH WIND       PRES   REMARKS
NORTH BEND     LGT RAIN  41  38  89 SE20      29.66R                  
BROOKINGS      RAIN      42  40  92 S22G32    29.73R FOG              
ROSEBURG       LGT RAIN  44  34  67 VRB6G17   29.69S                  
SEXTON SUMMIT  SNOW      29  28  96 S10G21    29.61R VSB 1/4 WCI  20  
GRANTS PASS    PTSUNNY   41  36  81 CALM      29.73                   
MEDFORD        CLOUDY    48  25  40 SW12G18   29.70F                  
$$

ORZ014>016-041-160000-
COLUMBIA GORGE

  
CITY           SKY/WX    TMP DP  RH WIND       PRES   REMARKS
TROUTDALE      CLOUDY    41  34  76 E15       29.68S                  
HOOD RIVER     MOSUNNY   36  32  87 CALM      29.72R                  
THE DALLES     PTSUNNY   34  27  75 NE3       29.75R                  
$$

ORZ029>031-041-044-049-050-061>064-502-503-505>511-160000-
EASTERN OREGON

  
CITY           SKY/WX    TMP DP  RH WIND       PRES   REMARKS
MADRAS         NOT AVBL                                               
REDMOND        PTSUNNY   41  23  48 SW13G22   29.62R                  
BEND           CLOUDY    41  21  45 S16G22    29.62S                  
PRINEVILLE     PTSUNNY   41  23  48 SW8       29.63                   
KLAMATH FALLS  CLOUDY    35  23  61 CALM      29.69S                  
LAKEVIEW       MOSUNNY   34  21  59 S15       29.71R WCI  24          
HERMISTON      MOSUNNY   35  28  75 S7        29.71F                  
PENDLETON      FOG       30  29  96 NW7       29.68R VSB 1/8          
JOHN DAY       CLOUDY    36  26  66 W9G20     29.66                   
MEACHAM        PTSUNNY   34  27  75 CALM      29.62R                  
LA GRANDE      CLOUDY    37  30  75 S6        29.66R                  
BAKER CITY     CLOUDY    41  25  53 NW8       29.63                   
BURNS          PTSUNNY   32  25  75 S16       29.68R WCI  21          
ROME             N/A     37  18  46 SW18      29.68R WCI  27          
ONTARIO        LGT RAIN  46  28  49 SW16G22   29.70F                  
$$